Location: Heathcote
(40.9845°N, 73.7746°W)
Time: 12:56:22
(UTC+00:00)

Cosmos 2297 Rocket - Pass Details

Date: 29 October 2020
Orbit: 838 x 844 km, 71.0° (Epoch: 01 December)

Event Time Altitude Azimuth Distance (km) Brightness Sun altitude
Rises 22:37:17 0° 338° (NNW) 3,411 5.5 -8.8°
Reaches altitude 10° 22:39:46 10° 341° (NNW) 2,473 4.7 -9.2°
Maximum altitude 22:45:25 68° 64° (ENE) 908 2.2 -10.3°
Drops below altitude 10° 22:51:02 10° 148° (SSE) 2,455 4.4 -11.3°
Sets 22:53:29 0° 151° (SSE) 3,385 5.1 -11.8°
